Вернуться в каталог

DMSP 5D-2 F13 DEB

АктивенSSO
NORAD 40563·DEBRIS·🇺🇸 United States

Запущен Mar 24, 1995 с Vandenberg Space Force Base

Loading…

Ближайшие Пролёты (ближайшие 24 часа)

TLE

СвежийSource: Space-Track

Эпоха: Sep 14, 2026, 08:26 UTC

1 40563U 95015DW  26257.35141179  .00003256  00000-0  93729-3 0  9990
2 40563  98.6478 301.6781 0017814  70.1386 290.1723 14.45353279595886

Отслеживайте DMSP 5D-2 F13 DEB в реальном времени с AllMySat

Download on the App Store